Tracking 30995 objects as of 7-Jul-2025
HD Live streaming from Space Station
objects crossing your sky now

STARLINK-5051

Track STARLINK-5051 now!
10-day predictions
STARLINK-5051 is classified as:


NORAD ID: 53916
Int'l Code: 2022-119AG
Perigee: 546.0 km
Apogee: 547.7 km
Inclination: 53.2 °
Period: 95.4 minutes
Semi major axis: 6917 km
RCS: Unknown
Launch date: September 24, 2022
Source: United States (US)
Launch site: AIR FORCE EASTERN TEST RANGE (AFETR)
Your satellite tracking list
SKYSAT C12
Track 1 satellite(s)




NASA's NSSDC Master Catalog

Two Line Element Set (TLE):
1 53916U 22119AG  25187.62587854  .00000276  00000-0  35455-4 0  9998
2 53916  53.2192 318.3984 0001239  87.7903 272.3231 15.08841087154544
Source of the keplerian elements: AFSPC